Location: Narvik
(68.4360°N, 17.4370°E)
Time: 12:25:04
(UTC+02:00)

DUCHIFAT 1 - Visible Passes

Search period start: 22 August 2019 00:00
Search period end: 01 September 2019 00:00
Orbit: 587 x 604 km, 97.9° (Epoch: 21 August)

Date Brightness Start Highest point End Pass type
(mag) Time Alt. Az. Time Alt. Az. Time Alt. Az.
22 Aug ? 00:29:26 10° NE 00:32:13 17° E 00:34:58 10° ESE visible
22 Aug ? 02:04:34 10° NNE 02:08:45 55° ESE 02:12:53 10° S visible
23 Aug ? 00:39:07 10° NE 00:42:09 19° E 00:45:11 10° SE visible
23 Aug ? 02:14:23 10° NNE 02:18:36 63° ESE 02:22:44 10° S visible
24 Aug ? 00:48:49 10° NE 00:52:05 21° E 00:55:19 10° SE visible
24 Aug ? 02:24:12 10° NNE 02:28:27 71° ESE 02:32:32 11° SSW visible
25 Aug ? 00:58:34 10° NE 01:02:01 24° E 01:05:26 10° SE visible
25 Aug ? 02:34:01 10° NNE 02:38:16 81° ESE 02:42:22 11° SSW visible
26 Aug ? 01:08:18 10° NNE 01:11:55 27° E 01:15:30 10° SSE visible
26 Aug ? 02:43:50 10° NNE 02:48:05 90° W 02:52:11 11° SSW visible
27 Aug ? 01:18:04 10° NNE 01:21:49 30° E 01:25:21 11° SSE visible
27 Aug ? 02:53:39 10° NNE 02:57:54 80° WNW 03:02:00 11° SSW visible
27 Aug ? 23:53:58 10° ENE 23:54:48 10° ENE 23:55:37 10° E visible
28 Aug ? 01:27:51 10° NNE 01:31:43 34° E 01:35:10 12° SSE visible
28 Aug ? 03:03:29 10° NNE 03:07:41 71° WNW 03:11:49 10° SW visible
29 Aug ? 00:03:09 10° NE 00:04:47 12° ENE 00:06:23 10° E visible
29 Aug ? 01:37:37 10° NNE 01:41:36 38° E 01:44:59 13° SSE visible
29 Aug ? 03:13:18 10° NNE 03:17:30 63° WNW 03:21:38 10° SW visible
30 Aug ? 00:12:38 10° NE 00:14:45 13° ENE 00:16:51 10° ESE visible
30 Aug ? 01:47:25 10° NNE 01:51:28 43° E 01:54:48 14° S visible
30 Aug ? 03:23:08 10° NNE 03:27:16 56° WNW 03:31:22 10° SW visible
31 Aug ? 00:22:12 10° NE 00:24:42 15° E 00:27:11 10° ESE visible
31 Aug ? 01:57:12 10° NNE 02:01:19 49° ESE 02:04:37 15° S visible
31 Aug ? 03:32:57 10° NNE 03:37:03 50° NW 03:41:06 10° SW visible
